Location: Daytona Beach
(29.2106°N, 81.0231°W)
Time: 12:07:04
(UTC-04:00)

PSAT 2 - Visible Passes

Search period start: 25 September 2021 00:00
Search period end: 05 October 2021 00:00
Orbit: 300 x 732 km, 28.5° (Epoch: 25 September)

Date Brightness Start Highest point End Pass type
(mag) Time Alt. Az. Time Alt. Az. Time Alt. Az.
25 Sep ? 20:46:51 10° W 20:52:01 53° SSW 20:53:23 41° SSE visible
26 Sep ? 20:28:45 10° W 20:33:50 49° SSW 20:36:22 27° SE visible
26 Sep ? 22:10:44 10° WSW 22:11:15 12° WSW 22:11:15 12° WSW visible
27 Sep ? 20:10:40 10° W 20:15:36 44° SSW 20:19:24 17° SE visible
27 Sep ? 21:52:51 10° WSW 21:54:16 14° SW 21:54:16 14° SW visible
28 Sep ? 19:52:35 10° W 19:57:21 40° SSW 20:02:18 10° SE visible
28 Sep ? 21:35:05 10° WSW 21:37:21 14° SW 21:37:21 14° SW visible
29 Sep ? 19:34:31 10° W 19:39:04 35° SSW 19:43:53 10° SE visible
29 Sep ? 21:17:30 10° SW 21:19:32 12° SSW 21:20:29 12° SSW visible
30 Sep ? 21:00:57 10° SSW 21:01:12 10° SSW 21:01:29 10° SSW visible
